Time,TemperatureF,DewpointF,PressureIn,WindDirection,WindDirectionDegrees,WindSpeedMPH,WindSpeedGustMPH,Humidity,HourlyPrecipIn,Conditions,Clouds,dailyrainin,SoftwareType,DateUTC
2013-08-31 00:06:00,75.0,74.4,29.75,East,90,0.0,-999.0,98,-99.99,,,0.00,Acu-Link.com,2013-08-31 04:06:00,
2013-08-31 00:21:00,75.0,74.4,29.75,East,90,0.0,-999.0,98,-99.99,,,0.00,Acu-Link.com,2013-08-31 04:21:00,
2013-08-31 00:36:00,75.0,74.4,29.75,East,90,0.0,-999.0,98,-99.99,,,0.00,Acu-Link.com,2013-08-31 04:36:00,
2013-08-31 00:51:00,75.0,74.4,29.76,WNW,292,0.0,-999.0,98,-99.99,,,0.00,Acu-Link.com,2013-08-31 04:51:00,
2013-08-31 01:06:00,74.7,74.1,29.76,WNW,292,0.0,-999.0,98,-99.99,,,0.00,Acu-Link.com,2013-08-31 05:06:00,
2013-08-31 01:22:00,74.7,74.1,29.75,NE,45,0.0,-999.0,98,-99.99,,,0.00,Acu-Link.com,2013-08-31 05:22:00,
2013-08-31 01:37:00,74.5,73.9,29.75,NE,45,2.7,-999.0,98,-99.99,,,0.00,Acu-Link.com,2013-08-31 05:37:00,
2013-08-31 01:52:00,74.3,73.7,29.75,ESE,112,0.0,-999.0,98,-99.99,,,0.00,Acu-Link.com,2013-08-31 05:52:00,
2013-08-31 02:08:00,74.1,73.5,29.74,NNE,22,0.0,-999.0,98,-99.99,,,0.00,Acu-Link.com,2013-08-31 06:08:00,
2013-08-31 02:23:00,73.9,73.3,29.74,NNE,22,0.0,-999.0,98,-99.99,,,0.00,Acu-Link.com,2013-08-31 06:23:00,
2013-08-31 02:38:00,73.8,73.2,29.74,East,90,0.0,-999.0,98,-99.99,,,0.00,Acu-Link.com,2013-08-31 06:38:00,
2013-08-31 02:54:00,73.8,73.2,29.75,East,90,0.0,-999.0,98,-99.99,,,0.00,Acu-Link.com,2013-08-31 06:54:00,
2013-08-31 03:09:00,73.6,73.0,29.74,East,90,0.0,-999.0,98,-99.99,,,0.00,Acu-Link.com,2013-08-31 07:09:00,
2013-08-31 03:24:00,73.6,73.0,29.74,East,90,0.0,-999.0,98,-99.99,,,0.00,Acu-Link.com,2013-08-31 07:24:00,
2013-08-31 03:39:00,73.4,72.8,29.74,East,90,1.7,-999.0,98,-99.99,,,0.00,Acu-Link.com,2013-08-31 07:39:00,
2013-08-31 03:55:00,73.0,72.4,29.73,East,90,0.0,-999.0,98,-99.99,,,0.00,Acu-Link.com,2013-08-31 07:55:00,
2013-08-31 04:10:00,72.9,72.3,29.73,East,90,0.0,-999.0,98,-99.99,,,0.00,Acu-Link.com,2013-08-31 08:10:00,
2013-08-31 04:26:00,72.7,72.1,29.73,East,90,0.0,-999.0,98,-99.99,,,0.00,Acu-Link.com,2013-08-31 08:26:00,
2013-08-31 04:41:00,72.5,71.9,29.73,East,90,0.0,-999.0,98,-99.99,,,0.00,Acu-Link.com,2013-08-31 08:41:00,
2013-08-31 04:56:00,72.1,71.5,29.73,NE,45,0.0,-999.0,98,-99.99,,,0.00,Acu-Link.com,2013-08-31 08:56:00,
2013-08-31 05:11:00,72.0,71.4,29.73,NE,45,0.0,-999.0,98,-99.99,,,0.00,Acu-Link.com,2013-08-31 09:11:00,
2013-08-31 05:27:00,71.6,71.0,29.73,NE,45,0.0,-999.0,98,-99.99,,,0.00,Acu-Link.com,2013-08-31 09:27:00,
2013-08-31 05:42:00,71.1,70.5,29.72,NE,45,0.0,-999.0,98,-99.99,,,0.00,Acu-Link.com,2013-08-31 09:42:00,
2013-08-31 05:57:00,70.5,69.9,29.72,NE,45,0.0,-999.0,98,-99.99,,,0.00,Acu-Link.com,2013-08-31 09:57:00,
2013-08-31 06:12:00,70.5,69.9,29.73,NE,45,0.0,-999.0,98,-99.99,,,0.00,Acu-Link.com,2013-08-31 10:12:00,
2013-08-31 06:27:00,70.2,69.6,29.73,NE,45,0.0,-999.0,98,-99.99,,,0.00,Acu-Link.com,2013-08-31 10:27:00,
2013-08-31 06:42:00,70.0,69.4,29.73,NE,45,0.0,-999.0,98,-99.99,,,0.00,Acu-Link.com,2013-08-31 10:42:00,
2013-08-31 06:58:00,70.0,69.4,29.73,NE,45,0.0,-999.0,98,-99.99,,,0.00,Acu-Link.com,2013-08-31 10:58:00,
2013-08-31 07:13:00,69.8,69.2,29.74,NE,45,0.0,-999.0,98,-99.99,,,0.00,Acu-Link.com,2013-08-31 11:13:00,
2013-08-31 07:28:00,69.8,69.2,29.74,NE,45,0.0,-999.0,98,-99.99,,,0.00,Acu-Link.com,2013-08-31 11:28:00,
2013-08-31 07:44:00,70.3,69.7,29.74,NE,45,0.0,-999.0,98,-99.99,,,0.00,Acu-Link.com,2013-08-31 11:44:00,
2013-08-31 07:59:00,70.7,70.1,29.74,NE,45,0.0,-999.0,98,-99.99,,,0.00,Acu-Link.com,2013-08-31 11:59:00,
2013-08-31 08:14:00,71.2,70.6,29.74,East,90,0.0,-999.0,98,-99.99,,,0.00,Acu-Link.com,2013-08-31 12:14:00,
2013-08-31 08:29:00,72.5,71.9,29.75,East,90,0.0,-999.0,98,-99.99,,,0.00,Acu-Link.com,2013-08-31 12:29:00,
2013-08-31 08:45:00,73.4,72.8,29.75,SSW,202,1.1,-999.0,98,-99.99,,,0.00,Acu-Link.com,2013-08-31 12:45:00,
2013-08-31 09:00:00,74.3,73.7,29.75,South,180,1.1,-999.0,98,-99.99,,,0.00,Acu-Link.com,2013-08-31 13:00:00,
2013-08-31 09:15:00,74.7,74.1,29.75,SSE,157,0.0,-999.0,98,-99.99,,,0.00,Acu-Link.com,2013-08-31 13:15:00,
2013-08-31 09:30:00,75.2,74.6,29.76,SSE,157,2.2,-999.0,98,-99.99,,,0.00,Acu-Link.com,2013-08-31 13:30:00,
2013-08-31 09:45:00,76.8,75.9,29.76,South,180,0.0,-999.0,97,-99.99,,,0.00,Acu-Link.com,2013-08-31 13:45:00,
2013-08-31 10:01:00,76.1,75.2,29.76,WSW,247,2.2,-999.0,97,-99.99,,,0.00,Acu-Link.com,2013-08-31 14:01:00,
2013-08-31 10:16:00,79.2,76.7,29.76,ESE,112,2.7,-999.0,92,-99.99,,,0.00,Acu-Link.com,2013-08-31 14:16:00,
2013-08-31 10:31:00,79.9,76.7,29.76,ESE,112,2.7,-999.0,90,-99.99,,,0.00,Acu-Link.com,2013-08-31 14:31:00,
2013-08-31 10:47:00,81.7,77.4,29.75,South,180,4.2,-999.0,87,-99.99,,,0.00,Acu-Link.com,2013-08-31 14:47:00,
2013-08-31 11:02:00,84.0,78.6,29.75,East,90,2.2,-999.0,84,-99.99,,,0.00,Acu-Link.com,2013-08-31 15:02:00,
2013-08-31 11:17:00,84.4,78.7,29.75,NE,45,0.0,-999.0,83,-99.99,,,0.00,Acu-Link.com,2013-08-31 15:17:00,
2013-08-31 11:32:00,84.0,76.4,29.75,West,270,2.7,-999.0,78,-99.99,,,0.00,Acu-Link.com,2013-08-31 15:32:00,
2013-08-31 11:48:00,84.0,76.4,29.74,SSE,157,0.0,-999.0,78,-99.99,,,0.00,Acu-Link.com,2013-08-31 15:48:00,
2013-08-31 12:03:00,84.9,77.3,29.74,WSW,247,1.7,-999.0,78,-99.99,,,0.00,Acu-Link.com,2013-08-31 16:03:00,
2013-08-31 12:18:00,88.3,78.5,29.74,SSW,202,2.2,-999.0,73,-99.99,,,0.00,Acu-Link.com,2013-08-31 16:18:00,
2013-08-31 12:33:00,86.2,76.9,29.73,SW,225,1.7,-999.0,74,-99.99,,,0.00,Acu-Link.com,2013-08-31 16:33:00,
2013-08-31 12:49:00,85.8,77.7,29.73,SSW,202,0.0,-999.0,77,-99.99,,,0.00,Acu-Link.com,2013-08-31 16:49:00,
2013-08-31 13:04:00,87.4,78.5,29.72,SE,135,5.3,-999.0,75,-99.99,,,0.00,Acu-Link.com,2013-08-31 17:04:00,
2013-08-31 13:19:00,88.7,79.3,29.71,WSW,247,5.3,-999.0,74,-99.99,,,0.00,Acu-Link.com,2013-08-31 17:19:00,
2013-08-31 13:34:00,89.6,78.9,29.71,SSE,157,3.2,-999.0,71,-99.99,,,0.00,Acu-Link.com,2013-08-31 17:34:00,
2013-08-31 13:50:00,90.1,79.8,29.70,ESE,112,6.3,-999.0,72,-99.99,,,0.00,Acu-Link.com,2013-08-31 17:50:00,
2013-08-31 14:05:00,86.7,77.4,29.70,SW,225,3.2,-999.0,74,-99.99,,,0.00,Acu-Link.com,2013-08-31 18:05:00,
2013-08-31 14:20:00,88.7,78.1,29.69,East,90,1.1,-999.0,71,-99.99,,,0.00,Acu-Link.com,2013-08-31 18:20:00,
2013-08-31 14:36:00,87.4,77.7,29.69,South,180,1.7,-999.0,73,-99.99,,,0.00,Acu-Link.com,2013-08-31 18:36:00,
2013-08-31 14:51:00,87.1,78.6,29.69,South,180,0.0,-999.0,76,-99.99,,,0.00,Acu-Link.com,2013-08-31 18:51:00,
2013-08-31 15:06:00,85.5,77.8,29.68,West,270,1.1,-999.0,78,-99.99,,,0.00,Acu-Link.com,2013-08-31 19:06:00,
2013-08-31 15:21:00,77.7,74.2,29.70,NW,315,2.7,-999.0,89,-99.99,,,0.01,Acu-Link.com,2013-08-31 19:21:00,
2013-08-31 15:37:00,72.0,70.5,29.70,NE,45,4.2,-999.0,95,-99.99,,,0.44,Acu-Link.com,2013-08-31 19:37:00,
2013-08-31 15:52:00,71.8,70.6,29.70,ESE,112,3.2,-999.0,96,-99.99,,,0.77,Acu-Link.com,2013-08-31 19:52:00,
2013-08-31 16:07:00,72.0,71.4,29.69,NNW,337,0.0,-999.0,98,-99.99,,,0.80,Acu-Link.com,2013-08-31 20:07:00,
2013-08-31 16:22:00,72.7,72.1,29.70,WNW,292,0.0,-999.0,98,-99.99,,,0.80,Acu-Link.com,2013-08-31 20:22:00,
2013-08-31 16:38:00,73.6,73.0,29.70,WNW,292,1.1,-999.0,98,-99.99,,,0.80,Acu-Link.com,2013-08-31 20:38:00,
2013-08-31 16:53:00,74.7,74.1,29.69,East,90,1.7,-999.0,98,-99.99,,,0.80,Acu-Link.com,2013-08-31 20:53:00,
2013-08-31 17:08:00,75.9,75.3,29.69,East,90,0.0,-999.0,98,-99.99,,,0.80,Acu-Link.com,2013-08-31 21:08:00,
2013-08-31 17:24:00,77.4,75.9,29.69,East,90,0.0,-999.0,95,-99.99,,,0.80,Acu-Link.com,2013-08-31 21:24:00,
2013-08-31 17:39:00,77.9,76.0,29.68,West,270,0.0,-999.0,94,-99.99,,,0.80,Acu-Link.com,2013-08-31 21:39:00,
2013-08-31 17:54:00,77.7,75.8,29.68,West,270,0.0,-999.0,94,-99.99,,,0.80,Acu-Link.com,2013-08-31 21:54:00,
2013-08-31 18:09:00,77.7,75.5,29.69,East,90,1.1,-999.0,93,-99.99,,,0.80,Acu-Link.com,2013-08-31 22:09:00,
2013-08-31 18:25:00,77.5,75.3,29.69,East,90,1.7,-999.0,93,-99.99,,,0.80,Acu-Link.com,2013-08-31 22:25:00,
2013-08-31 18:40:00,77.7,76.1,29.68,East,90,0.0,-999.0,95,-99.99,,,0.80,Acu-Link.com,2013-08-31 22:40:00,
2013-08-31 18:55:00,78.3,76.7,29.69,East,90,0.0,-999.0,95,-99.99,,,0.80,Acu-Link.com,2013-08-31 22:55:00,
2013-08-31 19:10:00,77.4,75.5,29.69,East,90,0.0,-999.0,94,-99.99,,,0.80,Acu-Link.com,2013-08-31 23:10:00,
2013-08-31 19:25:00,76.3,74.8,29.68,ESE,112,2.2,-999.0,95,-99.99,,,0.80,Acu-Link.com,2013-08-31 23:25:00,
2013-08-31 19:41:00,75.9,74.4,29.68,East,90,1.1,-999.0,95,-99.99,,,0.80,Acu-Link.com,2013-08-31 23:41:00,
2013-08-31 19:56:00,75.0,74.1,29.69,SE,135,0.0,-999.0,97,-99.99,,,0.80,Acu-Link.com,2013-08-31 23:56:00,
2013-08-31 20:11:00,74.1,73.5,29.69,WNW,292,0.0,-999.0,98,-99.99,,,0.80,Acu-Link.com,2013-09-01 00:11:00,
2013-08-31 20:27:00,73.8,73.2,29.70,South,180,0.0,-999.0,98,-99.99,,,0.80,Acu-Link.com,2013-09-01 00:27:00,
2013-08-31 20:42:00,73.2,72.6,29.71,SSE,157,1.1,-999.0,98,-99.99,,,0.80,Acu-Link.com,2013-09-01 00:42:00,
2013-08-31 20:57:00,72.9,72.3,29.71,WNW,292,0.0,-999.0,98,-99.99,,,0.80,Acu-Link.com,2013-09-01 00:57:00,
2013-08-31 21:12:00,72.7,72.1,29.72,NNE,22,0.0,-999.0,98,-99.99,,,0.80,Acu-Link.com,2013-09-01 01:12:00,
2013-08-31 21:28:00,72.3,71.7,29.72,West,270,0.0,-999.0,98,-99.99,,,0.80,Acu-Link.com,2013-09-01 01:28:00,
2013-08-31 21:43:00,72.3,71.7,29.72,WNW,292,0.0,-999.0,98,-99.99,,,0.80,Acu-Link.com,2013-09-01 01:43:00,
2013-08-31 21:58:00,72.3,71.7,29.71,West,270,0.0,-999.0,98,-99.99,,,0.80,Acu-Link.com,2013-09-01 01:58:00,
2013-08-31 22:14:00,72.1,71.5,29.71,WSW,247,0.0,-999.0,98,-99.99,,,0.80,Acu-Link.com,2013-09-01 02:14:00,
2013-08-31 22:29:00,72.0,71.4,29.72,West,270,0.0,-999.0,98,-99.99,,,0.80,Acu-Link.com,2013-09-01 02:29:00,
2013-08-31 22:44:00,71.8,71.2,29.71,West,270,0.0,-999.0,98,-99.99,,,0.80,Acu-Link.com,2013-09-01 02:44:00,
2013-08-31 23:00:00,71.8,71.2,29.70,West,270,1.1,-999.0,98,-99.99,,,0.80,Acu-Link.com,2013-09-01 03:00:00,
2013-08-31 23:15:00,71.6,71.0,29.70,WNW,292,0.0,-999.0,98,-99.99,,,0.80,Acu-Link.com,2013-09-01 03:15:00,
2013-08-31 23:30:00,71.4,70.8,29.71,WSW,247,0.0,-999.0,98,-99.99,,,0.80,Acu-Link.com,2013-09-01 03:30:00,
2013-08-31 23:45:00,71.6,71.0,29.71,NNW,337,0.0,-999.0,98,-99.99,,,0.80,Acu-Link.com,2013-09-01 03:45:00,